KO6HRZ Weather Reports


Display with metric or nautical units.
time (UTC)temp
F
wind
direction
speed
MPH
gust
MPH
rain 1hr
in
rain 24hr
in
rain mn
in
humidity
%
barometer
mb
20260506113354 57 230 0.0 2.0 0.00 0.00 0.00 87 1019.7
20260506112354 57 51 1.0 3.0 0.00 0.00 0.00 86 1019.9
20260506111350 57 172 1.0 4.0 0.00 0.00 0.00 86 1019.6
20260506110350 57 29 1.0 3.0 0.00 0.00 0.00 86 1019.5
20260506105349 57 173 1.0 3.0 0.00 0.00 0.00 86 1019.5
20260506104344 57 188 0.0 2.0 0.00 0.00 0.00 86 1019.5
20260506103339 57 161 0.0 3.0 0.00 0.00 0.00 85 1019.3
20260506102334 57 76 0.0 4.0 0.00 0.00 0.00 85 1019.2
20260506101333 57 159 2.0 4.0 0.00 0.00 0.00 85 1019.2
20260506100329 57 155 1.0 3.0 0.00 0.00 0.00 85 1019.3
20260506095329 57 188 2.0 4.0 0.00 0.00 0.00 85 1019.1
20260506094325 57 226 2.0 3.0 0.00 0.00 0.00 85 1019.3
20260506093325 58 106 0.0 2.0 0.00 0.00 0.00 84 1019.2
20260506092321 57 181 4.0 8.0 0.00 0.00 0.00 84 1019.3
20260506091321 58 151 4.0 5.0 0.00 0.00 0.00 84 1019.5
20260506090316 58 183 1.0 5.0 0.00 0.00 0.00 84 1019.3
20260506085314 58 157 2.0 3.0 0.00 0.00 0.00 84 1019.3
20260506084314 58 180 2.0 4.0 0.00 0.00 0.00 83 1019.3
20260506083308 58 139 2.0 3.0 0.00 0.00 0.00 84 1019.3
20260506082307 58 142 2.0 2.0 0.00 0.00 0.00 84 1019.2
20260506081302 58 124 1.0 3.0 0.00 0.00 0.00 84 1019.4
20260506080301 58 161 2.0 5.0 0.00 0.00 0.00 84 1019.3
20260506073251 58 127 1.0 5.0 0.00 0.00 0.00 84 1019.0
20260506072252 58 110 2.0 5.0 0.00 0.00 0.00 84 1018.9
20260506071247 58 178 0.0 4.0 0.00 0.00 0.00 84 1018.8
20260506070247 58 117 2.0 3.0 0.00 0.00 0.00 84 1018.9
20260506062230 58 186 3.0 5.0 0.00 0.02 0.02 84 1018.5
20260506061229 58 162 5.0 7.0 0.00 0.02 0.02 84 1018.3
20260506060224 59 355 0.0 3.0 0.00 0.02 0.02 84 1018.5
20260506051214 58 148 2.0 3.0 0.00 0.02 0.02 85 1018.0
20260506050209 59 173 0.0 3.0 0.00 0.02 0.02 84 1017.8
20260506044209 59 334 1.0 7.0 0.00 0.02 0.02 83 1017.6
20260506043204 60 148 1.0 8.0 0.00 0.02 0.02 82 1017.4
20260506042200 60 237 2.0 6.0 0.00 0.02 0.02 81 1017.2
20260506041155 60 191 6.0 7.0 0.00 0.02 0.02 81 1017.1
20260506040155 61 15 0.0 5.0 0.00 0.02 0.02 81 1017.3
20260506035155 61 86 1.0 6.0 0.00 0.02 0.02 80 1017.1
20260506034155 61 244 2.0 7.0 0.00 0.02 0.02 80 1016.9
20260506033154 62 241 1.0 6.0 0.00 0.02 0.02 81 1016.8
20260506032154 61 232 2.0 3.0 0.00 0.02 0.02 83 1016.7
20260506031154 62 165 1.0 3.0 0.00 0.02 0.02 82 1016.4
20260506030149 62 202 0.0 3.0 0.00 0.02 0.02 82 1016.5
20260506025148 62 142 0.0 2.0 0.00 0.02 0.02 81 1016.3
20260506024148 63 199 2.0 5.0 0.00 0.02 0.02 79 1015.9
20260506023147 63 207 3.0 6.0 0.00 0.02 0.02 78 1015.8
20260506022147 64 175 0.0 4.0 0.00 0.02 0.02 77 1015.8
20260506021142 64 153 0.0 3.0 0.00 0.02 0.02 76 1015.9
20260506020142 65 141 0.0 4.0 0.00 0.02 0.02 76 1015.8
20260506015137 65 91 0.0 4.0 0.00 0.02 0.02 76 1015.8
20260506014136 65 190 2.0 4.0 0.00 0.02 0.02 74 1015.7
20260506013131 66 188 2.0 5.0 0.00 0.02 0.02 72 1015.8
20260506012129 66 175 0.0 3.0 0.00 0.02 0.02 73 1015.7
20260506011129 66 177 2.0 5.0 0.00 0.02 0.02 74 1015.5
20260506010125 66 18 0.0 2.0 0.00 0.02 0.02 75 1015.5
20260506005124 66 140 0.0 4.0 0.00 0.02 0.02 75 1015.3
20260506004124 65 201 2.0 4.0 0.00 0.02 0.02 75 1015.3
20260506003122 66 194 2.0 4.0 0.00 0.02 0.02 75 1015.6
20260506002120 66 318 0.0 2.0 0.00 0.02 0.02 75 1015.5
20260506001119 66 231 1.0 3.0 0.00 0.02 0.02 73 1015.3
20260506000119 66 230 0.0 4.0 0.00 0.02 0.02 74 1015.4
20260505235114 66 203 0.0 4.0 0.00 0.02 0.02 74 1015.3
20260505234113 66 183 0.0 5.0 0.00 0.02 0.02 73 1015.2
20260505233108 66 189 3.0 6.0 0.00 0.02 0.02 74 1015.2
20260505232103 66 119 0.0 3.0 0.00 0.02 0.02 73 1015.4
20260505231059 65 193 0.0 6.0 0.00 0.02 0.02 74 1015.3
20260505230058 66 195 2.0 3.0 0.00 0.02 0.02 73 1015.2
20260505225056 66 177 0.0 5.0 0.00 0.02 0.02 73 1015.6
20260505224056 67 217 0.0 6.0 0.00 0.02 0.02 71 1015.6
20260505223055 68 209 0.0 3.0 0.00 0.02 0.02 68 1015.5
20260505222053 68 176 0.0 4.0 0.00 0.02 0.02 68 1015.7
20260505221053 69 235 0.0 3.0 0.00 0.02 0.02 65 1015.8
20260505220048 71 201 1.0 4.0 0.00 0.02 0.02 61 1015.9
20260505215043 68 62 1.0 3.0 0.00 0.02 0.02 68 1015.8
20260505214044 68 49 1.0 3.0 0.00 0.02 0.02 67 1015.9
20260505213043 68 41 0.0 2.0 0.00 0.02 0.02 69 1016.1
20260505212044 66 205 2.0 3.0 0.00 0.02 0.02 72 1016.1
20260505211043 65 49 1.0 2.0 0.00 0.02 0.02 75 1016.0
20260505210037 64 116 0.0 5.0 0.00 0.02 0.02 77 1016.0
20260505205038 64 176 3.0 7.0 0.00 0.02 0.02 77 1016.1
20260505204032 64 165 2.0 3.0 0.00 0.02 0.02 78 1016.1
20260505203032 64 339 2.0 5.0 0.00 0.02 0.02 79 1016.2
20260505202030 64 165 3.0 6.0 0.00 0.02 0.02 78 1016.2
20260505201025 65 176 3.0 5.0 0.00 0.02 0.02 77 1016.2
20260505200019 65 178 0.0 4.0 0.00 0.02 0.02 76 1016.3
20260505195018 65 173 1.0 4.0 0.00 0.02 0.02 76 1016.5
20260505194016 66 267 1.0 2.0 0.00 0.02 0.02 72 1016.3
20260505193010 66 40 2.0 4.0 0.00 0.02 0.02 71 1016.5
20260505192006 66 236 1.0 2.0 0.00 0.02 0.02 69 1016.2
20260505191001 66 259 0.0 3.0 0.00 0.02 0.02 69 1016.2
20260505185958 65 104 0.0 4.0 0.00 0.02 0.02 71 1016.5
20260505184957 68 195 1.0 4.0 0.00 0.02 0.02 68 1016.0
20260505183957 66 192 2.0 4.0 0.00 0.02 0.02 72 1016.2
20260505182956 66 197 2.0 4.0 0.00 0.02 0.02 71 1016.2
20260505181955 65 103 1.0 2.0 0.00 0.02 0.02 74 1016.2
20260505180956 64 86 1.0 3.0 0.00 0.02 0.02 74 1016.1
20260505175955 61 122 1.0 3.0 0.00 0.02 0.02 80 1016.0
20260505174954 61 150 0.0 4.0 0.00 0.02 0.02 82 1016.2
20260505173953 60 343 0.0 2.0 0.00 0.02 0.02 84 1015.9
20260505172952 60 301 0.0 4.0 0.00 0.02 0.02 86 1016.0
20260505171950 59 189 0.0 3.0 0.00 0.02 0.02 87 1016.0
20260505170949 59 185 0.0 3.0 0.00 0.02 0.02 89 1016.1
20260505165948 58 213 0.0 6.0 0.00 0.02 0.02 89 1015.9
20260505164945 58 173 2.0 3.0 0.00 0.02 0.02 89 1016.0
20260505163946 59 109 0.0 3.0 0.00 0.02 0.02 89 1015.8
20260505162943 58 134 1.0 6.0 0.00 0.02 0.02 90 1015.8
20260505161941 58 124 4.0 7.0 0.00 0.02 0.02 91 1016.0
20260505160942 57 195 2.0 3.0 0.00 0.02 0.02 93 1015.8
20260505152934 55 309 0.0 1.0 0.00 0.02 0.02 96 1015.7
20260505151931 54 161 2.0 4.0 0.00 0.02 0.02 96 1015.6
20260505150931 55 29 0.0 5.0 0.00 0.02 0.02 97 1015.5
20260505124915 53 127 2.0 6.0 0.00 0.02 0.02 99 1014.7
20260505123913 53 189 1.0 3.0 0.00 0.02 0.02 99 1014.6
20260505122911 53 141 3.0 4.0 0.00 0.02 0.02 99 1014.6
20260505121911 53 51 1.0 3.0 0.00 0.02 0.02 99 1014.6
20260505120910 53 104 0.0 2.0 0.00 0.02 0.02 99 1014.8
20260505115905 53 149 0.0 3.0 0.00 0.02 0.02 99 1014.8
20260505114901 53 119 2.0 4.0 0.00 0.02 0.02 99 1014.9
20260505113859 53 7 0.0 3.0 0.00 0.02 0.02 99 1015.0